• In India
  • List of Countries
  • For 7 days
  • Water Temperature
  • Satellite Maps
  • Weather Map
  • Weather Widgets
  • user-avatar
    Login

    Hourly Weather Zawoja

    Today, 21 January, Sunday

    Time Temperature Precipitation Wind Pressure Humidity
    00:00 -5°C° 0 mm 2 mps 697 mmHg 88%
    01:00 -3°C° 0 mm 1 mps 696 mmHg 89%
    02:00 -3°C° 0.1 mm 1 mps 696 mmHg 88%
    03:00 -3°C° 0.1 mm 1 mps 696 mmHg 88%
    04:00 -5°C° 0.1 mm 2 mps 695 mmHg 88%
    05:00 -3°C° 0.2 mm 1 mps 695 mmHg 89%
    06:00 -3°C° 0.2 mm 1 mps 695 mmHg 90%
    07:00 -3°C° 0.2 mm 1 mps 695 mmHg 91%
    08:00 -2°C° 0.3 mm 1 mps 696 mmHg 90%
    09:00 -2°C° 0.3 mm 1 mps 696 mmHg 90%
    10:00 -1°C° 0.3 mm 1 mps 697 mmHg 89%
    11:00 -1°C° 0.3 mm 1 mps 697 mmHg 89%
    12:00 -3°C° 0.3 mm 2 mps 697 mmHg 89%
    13:00 -2°C° 0.3 mm 2 mps 698 mmHg 89%
    14:00 -3°C° 0.2 mm 2 mps 698 mmHg 90%
    15:00 -3°C° 0.2 mm 2 mps 699 mmHg 91%
    16:00 -4°C° 0.2 mm 3 mps 699 mmHg 93%
    17:00 -5°C° 0.2 mm 3 mps 700 mmHg 93%
    18:00 -5°C° 0.2 mm 3 mps 700 mmHg 93%
    19:00 -5°C° 0.2 mm 3 mps 701 mmHg 93%
    20:00 -6°C° 0.3 mm 3 mps 701 mmHg 92%
    21:00 -6°C° 0.3 mm 3 mps 702 mmHg 92%
    22:00 -6°C° 0.3 mm 3 mps 702 mmHg 92%
    23:00 -6°C° 0.2 mm 3 mps 703 mmHg 92%

    Tomorrow, 22 January, Monday

    Time Temperature Precipitation Wind Pressure Humidity
    00:00 -6°C° 0.2 mm 3 mps 703 mmHg 92%
    01:00 -7°C° 0.2 mm 3 mps 703 mmHg 93%
    02:00 -6°C° 0.1 mm 2 mps 703 mmHg 93%
    03:00 -6°C° 0.1 mm 2 mps 704 mmHg 94%
    04:00 -6°C° 0.1 mm 2 mps 704 mmHg 94%
    05:00 -7°C° 0 mm 2 mps 704 mmHg 94%
    06:00 -6°C° 0 mm 1 mps 704 mmHg 95%
    07:00 -6°C° 0 mm 1 mps 704 mmHg 95%
    08:00 -6°C° 0 mm 1 mps 704 mmHg 92%
    09:00 -4°C° 0 mm 1 mps 704 mmHg 89%
    10:00 -6°C° 0 mm 2 mps 705 mmHg 86%
    11:00 -5°C° 0 mm 2 mps 704 mmHg 83%
    12:00 -5°C° 0 mm 2 mps 704 mmHg 80%
    13:00 -4°C° 0 mm 2 mps 704 mmHg 77%
    14:00 -3°C° 0 mm 1 mps 704 mmHg 80%
    15:00 -4°C° 0 mm 1 mps 704 mmHg 83%
    16:00 -4°C° 0 mm 1 mps 704 mmHg 86%
    17:00 -6°C° 0 mm 1 mps 704 mmHg 87%
    18:00 -7°C° 0 mm 2 mps 704 mmHg 88%
    19:00 -8°C° 0 mm 2 mps 705 mmHg 89%
    20:00 -8°C° 0 mm 2 mps 705 mmHg 88%
    21:00 -9°C° 0 mm 2 mps 705 mmHg 88%
    22:00 -9°C° 0 mm 2 mps 705 mmHg 87%
    23:00 -9°C° 0 mm 2 mps 705 mmHg 86%

    Day after tomorrow, 23 January, Tuesday

    Time Temperature Precipitation Wind Pressure Humidity
    00:00 -8°C° 0 mm 1 mps 706 mmHg 86%
    01:00 -8°C° 0 mm 1 mps 706 mmHg 85%
    02:00 -8°C° 0 mm 1 mps 706 mmHg 83%
    03:00 -7°C° 0 mm 1 mps 706 mmHg 82%
    04:00 -7°C° 0 mm 1 mps 706 mmHg 81%
    05:00 -7°C° 0 mm 1 mps 706 mmHg 81%
    06:00 -7°C° 0 mm 1 mps 707 mmHg 81%
    07:00 -7°C° 0 mm 1 mps 707 mmHg 81%
    08:00 -4°C° 0.1 mm 1 mps 708 mmHg 80%
    09:00 -3°C° 0.1 mm 1 mps 708 mmHg 79%
    10:00 -2°C° 0.1 mm 1 mps 709 mmHg 78%
    11:00 -2°C° 0.1 mm 1 mps 709 mmHg 79%
    12:00 -1°C° 0.1 mm 1 mps 709 mmHg 79%
    13:00 0°C° 0.1 mm 1 mps 710 mmHg 80%
    14:00 0°C° 0.1 mm 1 mps 710 mmHg 83%
    15:00 -1°C° 0.1 mm 1 mps 710 mmHg 86%
    16:00 -1°C° 0.1 mm 1 mps 710 mmHg 89%
    17:00 -1°C° 0 mm 1 mps 711 mmHg 90%
    18:00 -1°C° 0 mm 1 mps 711 mmHg 91%
    19:00 -2°C° 0 mm 1 mps 712 mmHg 92%
    20:00 -2°C° 0 mm 1 mps 712 mmHg 92%
    21:00 -3°C° 0 mm 1 mps 712 mmHg 92%
    22:00 -3°C° 0 mm 1 mps 712 mmHg 92%
    23:00 -3°C° 0 mm 1 mps 712 mmHg 91%

    24 January, Wednesday

    Time Temperature Precipitation Wind Pressure Humidity
    00:00 -6°C° 0 mm 2 mps 712 mmHg 91%
    01:00 -6°C° 0 mm 2 mps 712 mmHg 91%
    02:00 -6°C° 0 mm 2 mps 712 mmHg 91%
    03:00 -6°C° 0 mm 2 mps 712 mmHg 91%
    04:00 -6°C° 0 mm 2 mps 712 mmHg 91%
    05:00 -6°C° 0 mm 2 mps 712 mmHg 91%
    06:00 -5°C° 0 mm 2 mps 713 mmHg 90%
    07:00 -5°C° 0 mm 2 mps 713 mmHg 90%
    08:00 -4°C° 0 mm 2 mps 713 mmHg 88%
    09:00 -4°C° 0 mm 3 mps 713 mmHg 86%
    10:00 -2°C° 0 mm 3 mps 714 mmHg 84%
    11:00 -1°C° 0 mm 3 mps 714 mmHg 85%
    12:00 0°C° 0 mm 3 mps 713 mmHg 85%
    13:00 +1°C° 0 mm 3 mps 713 mmHg 86%
    14:00 0°C° 0 mm 3 mps 713 mmHg 87%
    15:00 -1°C° 0 mm 2 mps 713 mmHg 88%
    16:00 -1°C° 0 mm 2 mps 713 mmHg 89%
    17:00 -2°C° 0 mm 2 mps 713 mmHg 89%
    18:00 -2°C° 0 mm 2 mps 712 mmHg 90%
    19:00 -3°C° 0 mm 2 mps 712 mmHg 90%
    20:00 -3°C° 0 mm 2 mps 712 mmHg 90%
    21:00 -3°C° 0 mm 2 mps 712 mmHg 90%
    22:00 -4°C° 0 mm 3 mps 712 mmHg 90%
    23:00 -3°C° 0 mm 2 mps 712 mmHg 90%

    25 January, Thursday

    Time Temperature Precipitation Wind Pressure Humidity
    00:00 -3°C° 0 mm 2 mps 712 mmHg 90%
    01:00 -3°C° 0 mm 2 mps 711 mmHg 90%
    02:00 -3°C° 0 mm 2 mps 711 mmHg 90%
    03:00 -3°C° 0 mm 2 mps 711 mmHg 90%
    04:00 -3°C° 0 mm 2 mps 710 mmHg 89%
    05:00 -3°C° 0 mm 2 mps 710 mmHg 88%
    06:00 -3°C° 0 mm 2 mps 710 mmHg 88%
    07:00 -3°C° 0 mm 2 mps 710 mmHg 87%
    08:00 -2°C° 0 mm 2 mps 710 mmHg 85%
    09:00 -1°C° 0 mm 2 mps 710 mmHg 82%
    10:00 +1°C° 0 mm 2 mps 710 mmHg 80%
    11:00 +2°C° 0 mm 2 mps 710 mmHg 80%
    12:00 +3°C° 0 mm 2 mps 710 mmHg 80%
    13:00 +3°C° 0 mm 2 mps 710 mmHg 79%
    14:00 +2°C° 0 mm 2 mps 709 mmHg 81%
    15:00 +2°C° 0 mm 2 mps 709 mmHg 83%
    16:00 +1°C° 0 mm 2 mps 709 mmHg 84%
    17:00 -1°C° 0 mm 2 mps 708 mmHg 83%
    18:00 -2°C° 0 mm 2 mps 708 mmHg 83%
    19:00 -2°C° 0 mm 2 mps 708 mmHg 82%
    20:00 -1°C° 0 mm 1 mps 708 mmHg 81%
    21:00 -1°C° 0 mm 1 mps 708 mmHg 80%
    22:00 -1°C° 0 mm 1 mps 708 mmHg 79%
    23:00 -1°C° 0 mm 1 mps 708 mmHg 79%

    26 January, Friday

    Time Temperature Precipitation Wind Pressure Humidity
    00:00 -1°C° 0 mm 1 mps 707 mmHg 78%
    01:00 -1°C° 0 mm 1 mps 707 mmHg 78%
    02:00 -1°C° 0 mm 1 mps 707 mmHg 78%
    03:00 -1°C° 0 mm 1 mps 706 mmHg 78%
    04:00 -1°C° 0 mm 1 mps 706 mmHg 78%
    05:00 -1°C° 0 mm 1 mps 706 mmHg 79%
    06:00 -1°C° 0 mm 1 mps 706 mmHg 79%
    07:00 0°C° 0 mm 1 mps 706 mmHg 80%
    08:00 0°C° 0 mm 1 mps 706 mmHg 80%
    09:00 +1°C° 0 mm 1 mps 706 mmHg 80%
    10:00 +2°C° 0 mm 1 mps 706 mmHg 80%
    11:00 +2°C° 0 mm 1 mps 706 mmHg 81%
    12:00 +3°C° 0 mm 1 mps 706 mmHg 82%
    13:00 +3°C° 0 mm 1 mps 706 mmHg 83%
    14:00 +3°C° 0 mm 1 mps 706 mmHg 84%
    15:00 +2°C° 0 mm 1 mps 706 mmHg 85%
    16:00 +2°C° 0 mm 1 mps 706 mmHg 87%
    17:00 +1°C° 0 mm 1 mps 706 mmHg 87%
    18:00 +1°C° 0 mm 1 mps 707 mmHg 88%
    19:00 +1°C° 0 mm 1 mps 707 mmHg 89%
    20:00 +1°C° 0 mm 1 mps 707 mmHg 89%
    21:00 0°C° 0 mm 1 mps 708 mmHg 89%
    22:00 0°C° 0 mm 1 mps 708 mmHg 89%
    23:00 0°C° 0 mm 1 mps 708 mmHg 89%
    Show more